#datetime,building,power
2023-07-15T00:00:00,pst,12.04
2023-07-15T00:01:00,pst,12.15
2023-07-15T00:02:00,pst,12.12
2023-07-15T00:03:00,pst,12.03
2023-07-15T00:04:00,pst,12.15
2023-07-15T00:05:00,pst,12.07
2023-07-15T00:06:00,pst,12.08
2023-07-15T00:07:00,pst,12.10
2023-07-15T00:08:00,pst,12.08
2023-07-15T00:09:00,pst,12.07
2023-07-15T00:10:00,pst,12.07
2023-07-15T00:11:00,pst,12.01
2023-07-15T00:12:00,pst,11.99
2023-07-15T00:13:00,pst,11.86
2023-07-15T00:14:00,pst,11.85
2023-07-15T00:15:00,pst,11.86
2023-07-15T00:16:00,pst,11.87
2023-07-15T00:17:00,pst,11.86
2023-07-15T00:18:00,pst,12.02
2023-07-15T00:19:00,pst,11.99
2023-07-15T00:20:00,pst,11.96
2023-07-15T00:21:00,pst,12.03
2023-07-15T00:22:00,pst,13.46
2023-07-15T00:23:00,pst,12.02
2023-07-15T00:24:00,pst,12.01
2023-07-15T00:25:00,pst,11.92
2023-07-15T00:26:00,pst,11.86
2023-07-15T00:27:00,pst,11.87
2023-07-15T00:28:00,pst,11.77
2023-07-15T00:29:00,pst,11.75
2023-07-15T00:30:00,pst,12.00
2023-07-15T00:31:00,pst,11.96
2023-07-15T00:32:00,pst,11.98
2023-07-15T00:33:00,pst,11.94
2023-07-15T00:34:00,pst,11.95
2023-07-15T00:35:00,pst,12.01
2023-07-15T00:36:00,pst,12.00
2023-07-15T00:37:00,pst,12.01
2023-07-15T00:38:00,pst,12.13
2023-07-15T00:39:00,pst,12.10
2023-07-15T00:40:00,pst,12.09
2023-07-15T00:41:00,pst,12.16
2023-07-15T00:42:00,pst,12.22
2023-07-15T00:43:00,pst,12.30
2023-07-15T00:44:00,pst,12.21
2023-07-15T00:45:00,pst,12.19
2023-07-15T00:46:00,pst,12.20
2023-07-15T00:47:00,pst,12.18
2023-07-15T00:48:00,pst,12.15
2023-07-15T00:49:00,pst,12.05
2023-07-15T00:50:00,pst,11.99
2023-07-15T00:51:00,pst,11.99
2023-07-15T00:52:00,pst,11.99
2023-07-15T00:53:00,pst,11.96
2023-07-15T00:54:00,pst,11.78
2023-07-15T00:55:00,pst,11.79
2023-07-15T00:56:00,pst,11.77
2023-07-15T00:57:00,pst,11.83
2023-07-15T00:58:00,pst,11.77
2023-07-15T00:59:00,pst,11.77
2023-07-15T01:00:00,pst,11.71
2023-07-15T01:01:00,pst,11.78
2023-07-15T01:02:00,pst,11.78
2023-07-15T01:03:00,pst,11.76
2023-07-15T01:04:00,pst,11.78
2023-07-15T01:05:00,pst,11.62
2023-07-15T01:06:00,pst,11.62
2023-07-15T01:07:00,pst,11.56
2023-07-15T01:08:00,pst,11.58
2023-07-15T01:09:00,pst,11.58
2023-07-15T01:10:00,pst,11.53
2023-07-15T01:11:00,pst,11.52
2023-07-15T01:12:00,pst,12.62
2023-07-15T01:13:00,pst,12.66
2023-07-15T01:14:00,pst,12.69
2023-07-15T01:15:00,pst,12.68
2023-07-15T01:16:00,pst,12.66
2023-07-15T01:17:00,pst,12.62
2023-07-15T01:18:00,pst,12.63
2023-07-15T01:19:00,pst,12.63
2023-07-15T01:20:00,pst,11.93
2023-07-15T01:21:00,pst,11.91
2023-07-15T01:22:00,pst,12.10
2023-07-15T01:23:00,pst,12.08
2023-07-15T01:24:00,pst,12.09
2023-07-15T01:25:00,pst,11.89
2023-07-15T01:26:00,pst,11.87
2023-07-15T01:27:00,pst,11.92
2023-07-15T01:28:00,pst,11.92
2023-07-15T01:29:00,pst,11.89
2023-07-15T01:30:00,pst,11.70
2023-07-15T01:31:00,pst,11.69
2023-07-15T01:32:00,pst,11.70
2023-07-15T01:33:00,pst,11.71
2023-07-15T01:34:00,pst,11.75
2023-07-15T01:35:00,pst,11.81
2023-07-15T01:36:00,pst,11.81
2023-07-15T01:37:00,pst,11.82
2023-07-15T01:38:00,pst,11.83
2023-07-15T01:39:00,pst,11.81
2023-07-15T01:40:00,pst,11.81
2023-07-15T01:41:00,pst,11.84
2023-07-15T01:42:00,pst,11.83
2023-07-15T01:43:00,pst,11.90
2023-07-15T01:44:00,pst,11.91
2023-07-15T01:45:00,pst,11.94
2023-07-15T01:46:00,pst,11.82
2023-07-15T01:47:00,pst,11.82
2023-07-15T01:48:00,pst,11.80
2023-07-15T01:49:00,pst,11.79
2023-07-15T01:50:00,pst,20.77
2023-07-15T01:51:00,pst,20.53
2023-07-15T01:52:00,pst,20.40
2023-07-15T01:53:00,pst,22.00
2023-07-15T01:54:00,pst,13.51
2023-07-15T01:55:00,pst,13.46
2023-07-15T01:56:00,pst,12.02
2023-07-15T01:57:00,pst,11.97
2023-07-15T01:58:00,pst,12.02
2023-07-15T01:59:00,pst,11.99
2023-07-15T02:00:00,pst,23.21
2023-07-15T02:01:00,pst,12.05
2023-07-15T02:02:00,pst,12.08
2023-07-15T02:03:00,pst,12.11
2023-07-15T02:04:00,pst,12.11
2023-07-15T02:05:00,pst,11.96
2023-07-15T02:06:00,pst,13.35
2023-07-15T02:07:00,pst,13.32
2023-07-15T02:08:00,pst,13.27
2023-07-15T02:09:00,pst,13.28
2023-07-15T02:10:00,pst,13.25
2023-07-15T02:11:00,pst,11.83
2023-07-15T02:12:00,pst,11.75
2023-07-15T02:13:00,pst,11.91
2023-07-15T02:14:00,pst,11.85
2023-07-15T02:15:00,pst,11.82
2023-07-15T02:16:00,pst,11.96
2023-07-15T02:17:00,pst,11.95
2023-07-15T02:18:00,pst,11.96
2023-07-15T02:19:00,pst,11.88
2023-07-15T02:20:00,pst,11.87
2023-07-15T02:21:00,pst,11.83
2023-07-15T02:22:00,pst,11.83
2023-07-15T02:23:00,pst,11.79
2023-07-15T02:24:00,pst,11.85
2023-07-15T02:25:00,pst,11.80
2023-07-15T02:26:00,pst,11.80
2023-07-15T02:27:00,pst,11.79
2023-07-15T02:28:00,pst,11.79
2023-07-15T02:29:00,pst,11.76
2023-07-15T02:30:00,pst,11.76
2023-07-15T02:31:00,pst,11.76
2023-07-15T02:32:00,pst,11.75
2023-07-15T02:33:00,pst,11.75
2023-07-15T02:34:00,pst,11.70
2023-07-15T02:35:00,pst,11.69
2023-07-15T02:36:00,pst,11.71
2023-07-15T02:37:00,pst,11.58
2023-07-15T02:38:00,pst,11.59
2023-07-15T02:39:00,pst,11.59
2023-07-15T02:40:00,pst,11.55
2023-07-15T02:41:00,pst,11.53
2023-07-15T02:42:00,pst,11.54
2023-07-15T02:43:00,pst,11.53
2023-07-15T02:44:00,pst,11.55
2023-07-15T02:45:00,pst,11.54
2023-07-15T02:46:00,pst,11.41
2023-07-15T02:47:00,pst,11.41
2023-07-15T02:48:00,pst,11.40
2023-07-15T02:49:00,pst,11.40
2023-07-15T02:50:00,pst,11.42
2023-07-15T02:51:00,pst,11.41
2023-07-15T02:52:00,pst,11.42
2023-07-15T02:53:00,pst,11.42
2023-07-15T02:54:00,pst,11.99
2023-07-15T02:55:00,pst,11.46
2023-07-15T02:56:00,pst,11.47
2023-07-15T02:57:00,pst,11.43
2023-07-15T02:58:00,pst,11.45
2023-07-15T02:59:00,pst,11.44
2023-07-15T03:00:00,pst,11.46
2023-07-15T03:01:00,pst,11.46
2023-07-15T03:02:00,pst,11.46
2023-07-15T03:03:00,pst,11.62
2023-07-15T03:04:00,pst,11.54
2023-07-15T03:05:00,pst,11.54
2023-07-15T03:06:00,pst,11.55
2023-07-15T03:07:00,pst,11.57
2023-07-15T03:08:00,pst,11.76
2023-07-15T03:09:00,pst,11.75
2023-07-15T03:10:00,pst,11.62
2023-07-15T03:11:00,pst,11.60
2023-07-15T03:12:00,pst,11.56
2023-07-15T03:13:00,pst,11.66
2023-07-15T03:14:00,pst,11.63
2023-07-15T03:15:00,pst,11.70
2023-07-15T03:16:00,pst,11.71
2023-07-15T03:17:00,pst,11.72
2023-07-15T03:18:00,pst,11.76
2023-07-15T03:19:00,pst,11.76
2023-07-15T03:20:00,pst,11.77
2023-07-15T03:21:00,pst,11.76
2023-07-15T03:22:00,pst,12.83
2023-07-15T03:23:00,pst,12.85
2023-07-15T03:24:00,pst,12.87
2023-07-15T03:25:00,pst,12.79
2023-07-15T03:26:00,pst,12.75
2023-07-15T03:27:00,pst,12.73
2023-07-15T03:28:00,pst,12.75
2023-07-15T03:29:00,pst,12.72
2023-07-15T03:30:00,pst,12.71
2023-07-15T03:31:00,pst,12.04
2023-07-15T03:32:00,pst,12.05
2023-07-15T03:33:00,pst,12.05
2023-07-15T03:34:00,pst,11.99
2023-07-15T03:35:00,pst,11.97
2023-07-15T03:36:00,pst,12.04
2023-07-15T03:37:00,pst,11.90
2023-07-15T03:38:00,pst,11.92
2023-07-15T03:39:00,pst,11.91
2023-07-15T03:40:00,pst,13.42
2023-07-15T03:41:00,pst,13.39
2023-07-15T03:42:00,pst,13.43
2023-07-15T03:43:00,pst,11.89
2023-07-15T03:44:00,pst,12.53
2023-07-15T03:45:00,pst,12.50
2023-07-15T03:46:00,pst,12.51
2023-07-15T03:47:00,pst,11.55
2023-07-15T03:48:00,pst,11.47
2023-07-15T03:49:00,pst,11.48
2023-07-15T03:50:00,pst,11.46
2023-07-15T03:51:00,pst,11.46
2023-07-15T03:52:00,pst,11.27
2023-07-15T03:53:00,pst,11.28
2023-07-15T03:54:00,pst,11.41
2023-07-15T03:55:00,pst,11.41
2023-07-15T03:56:00,pst,11.49
2023-07-15T03:57:00,pst,11.52
2023-07-15T03:58:00,pst,11.52
2023-07-15T03:59:00,pst,11.65
2023-07-15T04:00:00,pst,11.67
2023-07-15T04:01:00,pst,11.67
2023-07-15T04:02:00,pst,11.64
2023-07-15T04:03:00,pst,11.67
2023-07-15T04:04:00,pst,11.64
2023-07-15T04:05:00,pst,11.57
2023-07-15T04:06:00,pst,11.59
2023-07-15T04:07:00,pst,11.60
2023-07-15T04:08:00,pst,11.58
2023-07-15T04:09:00,pst,11.60
2023-07-15T04:10:00,pst,11.60
2023-07-15T04:11:00,pst,11.60
2023-07-15T04:12:00,pst,11.59
2023-07-15T04:13:00,pst,11.57
2023-07-15T04:14:00,pst,11.61
2023-07-15T04:15:00,pst,11.59
2023-07-15T04:16:00,pst,11.47
2023-07-15T04:17:00,pst,11.47
2023-07-15T04:18:00,pst,11.48
2023-07-15T04:19:00,pst,11.48
2023-07-15T04:20:00,pst,11.48
2023-07-15T04:21:00,pst,11.50
2023-07-15T04:22:00,pst,11.50
2023-07-15T04:23:00,pst,11.50
2023-07-15T04:24:00,pst,11.48
2023-07-15T04:25:00,pst,11.47
2023-07-15T04:26:00,pst,11.55
2023-07-15T04:27:00,pst,11.54
2023-07-15T04:28:00,pst,11.39
2023-07-15T04:29:00,pst,11.40
2023-07-15T04:30:00,pst,11.40
2023-07-15T04:31:00,pst,20.17
2023-07-15T04:32:00,pst,20.08
2023-07-15T04:33:00,pst,19.97
2023-07-15T04:34:00,pst,11.46
2023-07-15T04:35:00,pst,11.44
2023-07-15T04:36:00,pst,11.38
2023-07-15T04:37:00,pst,11.36
2023-07-15T04:38:00,pst,11.39
2023-07-15T04:39:00,pst,11.36
2023-07-15T04:40:00,pst,11.35
2023-07-15T04:41:00,pst,11.36
2023-07-15T04:42:00,pst,11.32
2023-07-15T04:43:00,pst,11.33
2023-07-15T04:44:00,pst,11.32
2023-07-15T04:45:00,pst,11.33
2023-07-15T04:46:00,pst,11.49
2023-07-15T04:47:00,pst,11.48
2023-07-15T04:48:00,pst,11.47
2023-07-15T04:49:00,pst,11.48
2023-07-15T04:50:00,pst,11.60
2023-07-15T04:51:00,pst,11.59
2023-07-15T04:52:00,pst,11.61
2023-07-15T04:53:00,pst,11.60
2023-07-15T04:54:00,pst,11.59
2023-07-15T04:55:00,pst,11.57
2023-07-15T04:56:00,pst,11.56
2023-07-15T04:57:00,pst,11.57
2023-07-15T04:58:00,pst,11.63
2023-07-15T04:59:00,pst,11.64
2023-07-15T05:00:00,pst,11.63
2023-07-15T05:01:00,pst,11.64
2023-07-15T05:02:00,pst,11.63
2023-07-15T05:03:00,pst,11.63
2023-07-15T05:04:00,pst,11.62
2023-07-15T05:05:00,pst,11.63
2023-07-15T05:06:00,pst,11.60
2023-07-15T05:07:00,pst,11.44
2023-07-15T05:08:00,pst,11.46
2023-07-15T05:09:00,pst,11.44
2023-07-15T05:10:00,pst,11.44
2023-07-15T05:11:00,pst,11.43
2023-07-15T05:12:00,pst,11.48
2023-07-15T05:13:00,pst,11.47
2023-07-15T05:14:00,pst,11.49
2023-07-15T05:15:00,pst,11.49
2023-07-15T05:16:00,pst,6.04
2023-07-15T05:17:00,pst,6.09
2023-07-15T05:18:00,pst,6.04
2023-07-15T05:19:00,pst,6.05
2023-07-15T05:20:00,pst,5.89
2023-07-15T05:21:00,pst,5.89
2023-07-15T05:22:00,pst,5.92
2023-07-15T05:23:00,pst,5.92
2023-07-15T05:24:00,pst,5.91
2023-07-15T05:25:00,pst,5.92
2023-07-15T05:26:00,pst,5.91
2023-07-15T05:27:00,pst,5.92
2023-07-15T05:28:00,pst,5.92
2023-07-15T05:29:00,pst,5.99
2023-07-15T05:30:00,pst,6.00
2023-07-15T05:31:00,pst,5.97
2023-07-15T05:32:00,pst,5.95
2023-07-15T05:33:00,pst,6.00
2023-07-15T05:34:00,pst,6.00
2023-07-15T05:35:00,pst,6.00
2023-07-15T05:36:00,pst,6.02
2023-07-15T05:37:00,pst,6.12
2023-07-15T05:38:00,pst,6.05
2023-07-15T05:39:00,pst,6.18
2023-07-15T05:40:00,pst,6.19
2023-07-15T05:41:00,pst,6.18
2023-07-15T05:42:00,pst,6.18
2023-07-15T05:43:00,pst,6.16
2023-07-15T05:44:00,pst,6.17
2023-07-15T05:45:00,pst,6.19
2023-07-15T05:46:00,pst,6.16
2023-07-15T05:47:00,pst,6.15
2023-07-15T05:48:00,pst,6.16
2023-07-15T05:49:00,pst,6.15
2023-07-15T05:50:00,pst,6.14
2023-07-15T05:51:00,pst,6.13
2023-07-15T05:52:00,pst,6.18
2023-07-15T05:53:00,pst,6.17
2023-07-15T05:54:00,pst,6.16
2023-07-15T05:55:00,pst,6.16
2023-07-15T05:56:00,pst,6.16
2023-07-15T05:57:00,pst,6.06
2023-07-15T05:58:00,pst,6.05
2023-07-15T05:59:00,pst,6.04
2023-07-15T06:00:00,pst,6.12
2023-07-15T06:01:00,pst,6.20
2023-07-15T06:02:00,pst,6.21
2023-07-15T06:03:00,pst,6.19
2023-07-15T06:04:00,pst,6.20
2023-07-15T06:05:00,pst,6.17
2023-07-15T06:06:00,pst,6.19
2023-07-15T06:07:00,pst,7.24
2023-07-15T06:08:00,pst,7.25
2023-07-15T06:09:00,pst,7.27
2023-07-15T06:10:00,pst,7.22
2023-07-15T06:11:00,pst,7.01
2023-07-15T06:12:00,pst,7.02
2023-07-15T06:13:00,pst,7.01
2023-07-15T06:14:00,pst,7.01
2023-07-15T06:15:00,pst,7.00
2023-07-15T06:16:00,pst,6.33
2023-07-15T06:17:00,pst,6.33
2023-07-15T06:18:00,pst,6.33
2023-07-15T06:19:00,pst,6.41
2023-07-15T06:20:00,pst,6.40
2023-07-15T06:21:00,pst,6.01
2023-07-15T06:22:00,pst,6.02
2023-07-15T06:23:00,pst,6.01
2023-07-15T06:24:00,pst,6.01
2023-07-15T06:25:00,pst,6.00
2023-07-15T06:26:00,pst,5.83
2023-07-15T06:27:00,pst,5.82
2023-07-15T06:28:00,pst,6.00
2023-07-15T06:29:00,pst,5.98
2023-07-15T06:30:00,pst,5.99
2023-07-15T06:31:00,pst,6.17
2023-07-15T06:32:00,pst,10.52
2023-07-15T06:33:00,pst,10.47
2023-07-15T06:34:00,pst,10.45
2023-07-15T06:35:00,pst,10.45
2023-07-15T06:36:00,pst,10.43
2023-07-15T06:37:00,pst,10.42
2023-07-15T06:38:00,pst,10.47
2023-07-15T06:39:00,pst,10.46
2023-07-15T06:40:00,pst,10.47
2023-07-15T06:41:00,pst,10.70
2023-07-15T06:42:00,pst,10.63
2023-07-15T06:43:00,pst,10.76
2023-07-15T06:44:00,pst,10.92
2023-07-15T06:45:00,pst,10.81
2023-07-15T06:46:00,pst,10.84
2023-07-15T06:47:00,pst,10.99
2023-07-15T06:48:00,pst,10.95
2023-07-15T06:49:00,pst,10.78
2023-07-15T06:50:00,pst,10.78
2023-07-15T06:51:00,pst,10.87
2023-07-15T06:52:00,pst,10.77
2023-07-15T06:53:00,pst,10.71
2023-07-15T06:54:00,pst,6.56
2023-07-15T06:55:00,pst,10.80
2023-07-15T06:56:00,pst,10.65
2023-07-15T06:57:00,pst,10.70
2023-07-15T06:58:00,pst,10.63
2023-07-15T06:59:00,pst,10.71
2023-07-15T07:00:00,pst,10.59
2023-07-15T07:01:00,pst,10.67
2023-07-15T07:02:00,pst,10.49
2023-07-15T07:03:00,pst,10.68
2023-07-15T07:04:00,pst,10.76
2023-07-15T07:05:00,pst,10.96
2023-07-15T07:06:00,pst,11.23
2023-07-15T07:07:00,pst,11.18
2023-07-15T07:08:00,pst,11.18
2023-07-15T07:09:00,pst,11.07
2023-07-15T07:10:00,pst,10.37
2023-07-15T07:11:00,pst,10.07
2023-07-15T07:12:00,pst,10.07
2023-07-15T07:13:00,pst,14.42
2023-07-15T07:14:00,pst,14.56
2023-07-15T07:15:00,pst,14.45
2023-07-15T07:16:00,pst,14.56
2023-07-15T07:17:00,pst,14.57
2023-07-15T07:18:00,pst,14.59
2023-07-15T07:19:00,pst,14.79
2023-07-15T07:20:00,pst,14.63
2023-07-15T07:21:00,pst,14.68
2023-07-15T07:22:00,pst,14.74
2023-07-15T07:23:00,pst,23.60
2023-07-15T07:24:00,pst,23.67
2023-07-15T07:25:00,pst,23.42
2023-07-15T07:26:00,pst,11.13
2023-07-15T07:27:00,pst,14.80
2023-07-15T07:28:00,pst,14.90
2023-07-15T07:29:00,pst,14.87
2023-07-15T07:30:00,pst,14.88
2023-07-15T07:31:00,pst,10.93
2023-07-15T07:32:00,pst,14.90
2023-07-15T07:33:00,pst,14.89
2023-07-15T07:34:00,pst,14.84
2023-07-15T07:35:00,pst,14.95
2023-07-15T07:36:00,pst,15.01
2023-07-15T07:37:00,pst,11.04
2023-07-15T07:38:00,pst,15.27
2023-07-15T07:39:00,pst,15.22
2023-07-15T07:40:00,pst,11.21
2023-07-15T07:41:00,pst,15.14
2023-07-15T07:42:00,pst,14.63
2023-07-15T07:43:00,pst,10.28
2023-07-15T07:44:00,pst,8.53
2023-07-15T07:45:00,pst,14.53
2023-07-15T07:46:00,pst,14.51
2023-07-15T07:47:00,pst,10.58
2023-07-15T07:48:00,pst,14.53
2023-07-15T07:49:00,pst,14.53
2023-07-15T07:50:00,pst,14.44
2023-07-15T07:51:00,pst,10.59
2023-07-15T07:52:00,pst,14.45
2023-07-15T07:53:00,pst,14.32
2023-07-15T07:54:00,pst,10.43
2023-07-15T07:55:00,pst,10.16
2023-07-15T07:56:00,pst,10.16
2023-07-15T07:57:00,pst,10.13
2023-07-15T07:58:00,pst,10.20
2023-07-15T07:59:00,pst,10.18
2023-07-15T08:00:00,pst,10.19
2023-07-15T08:01:00,pst,10.17
2023-07-15T08:02:00,pst,6.32
2023-07-15T08:03:00,pst,6.28
2023-07-15T08:04:00,pst,10.83
2023-07-15T08:05:00,pst,11.36
2023-07-15T08:06:00,pst,7.57
2023-07-15T08:07:00,pst,7.57
2023-07-15T08:08:00,pst,11.50
2023-07-15T08:09:00,pst,11.51
2023-07-15T08:10:00,pst,7.75
2023-07-15T08:11:00,pst,7.73
2023-07-15T08:12:00,pst,11.00
2023-07-15T08:13:00,pst,12.39
2023-07-15T08:14:00,pst,8.58
2023-07-15T08:15:00,pst,8.21
2023-07-15T08:16:00,pst,11.15
2023-07-15T08:17:00,pst,6.91
2023-07-15T08:18:00,pst,6.83
2023-07-15T08:19:00,pst,6.78
2023-07-15T08:20:00,pst,8.50
2023-07-15T08:21:00,pst,8.47
2023-07-15T08:22:00,pst,8.46
2023-07-15T08:23:00,pst,8.45
2023-07-15T08:24:00,pst,7.97
2023-07-15T08:25:00,pst,6.65
2023-07-15T08:26:00,pst,6.71
2023-07-15T08:27:00,pst,6.19
2023-07-15T08:28:00,pst,6.19
2023-07-15T08:29:00,pst,6.24
2023-07-15T08:30:00,pst,6.26
2023-07-15T08:31:00,pst,6.15
2023-07-15T08:32:00,pst,6.14
2023-07-15T08:33:00,pst,6.06
2023-07-15T08:34:00,pst,6.14
2023-07-15T08:35:00,pst,6.13
2023-07-15T08:36:00,pst,6.06
2023-07-15T08:37:00,pst,6.11
2023-07-15T08:38:00,pst,6.12
2023-07-15T08:39:00,pst,6.04
2023-07-15T08:40:00,pst,6.27
2023-07-15T08:41:00,pst,6.23
2023-07-15T08:42:00,pst,6.23
2023-07-15T08:43:00,pst,6.22
2023-07-15T08:44:00,pst,6.21
2023-07-15T08:45:00,pst,6.20
2023-07-15T08:46:00,pst,6.13
2023-07-15T08:47:00,pst,6.22
2023-07-15T08:48:00,pst,6.22
2023-07-15T08:49:00,pst,6.10
2023-07-15T08:50:00,pst,6.10
2023-07-15T08:51:00,pst,6.11
2023-07-15T08:52:00,pst,6.11
2023-07-15T08:53:00,pst,6.11
2023-07-15T08:54:00,pst,6.11
2023-07-15T08:55:00,pst,6.11
2023-07-15T08:56:00,pst,6.05
2023-07-15T08:57:00,pst,6.06
2023-07-15T08:58:00,pst,6.04
2023-07-15T08:59:00,pst,6.04
2023-07-15T09:00:00,pst,6.05
2023-07-15T09:01:00,pst,6.03
2023-07-15T09:02:00,pst,6.10
2023-07-15T09:03:00,pst,6.11
2023-07-15T09:04:00,pst,6.02
2023-07-15T09:05:00,pst,6.05
2023-07-15T09:06:00,pst,6.19
2023-07-15T09:07:00,pst,6.23
2023-07-15T09:08:00,pst,6.24
2023-07-15T09:09:00,pst,6.23
2023-07-15T09:10:00,pst,6.23
2023-07-15T09:11:00,pst,6.22
2023-07-15T09:12:00,pst,6.19
2023-07-15T09:13:00,pst,6.20
2023-07-15T09:14:00,pst,6.19
2023-07-15T09:15:00,pst,6.19
2023-07-15T09:16:00,pst,6.17
2023-07-15T09:17:00,pst,6.16
2023-07-15T09:18:00,pst,6.27
2023-07-15T09:19:00,pst,6.20
2023-07-15T09:20:00,pst,6.19
2023-07-15T09:21:00,pst,6.21
2023-07-15T09:22:00,pst,6.19
2023-07-15T09:23:00,pst,6.09
2023-07-15T09:24:00,pst,6.09
2023-07-15T09:25:00,pst,6.10
2023-07-15T09:26:00,pst,6.09
2023-07-15T09:27:00,pst,6.09
2023-07-15T09:28:00,pst,6.06
2023-07-15T09:29:00,pst,6.08
2023-07-15T09:30:00,pst,6.12
2023-07-15T09:31:00,pst,6.10
2023-07-15T09:32:00,pst,6.10
2023-07-15T09:33:00,pst,6.18
2023-07-15T09:34:00,pst,6.15
2023-07-15T09:35:00,pst,8.88
2023-07-15T09:36:00,pst,7.30
2023-07-15T09:37:00,pst,7.32
2023-07-15T09:38:00,pst,7.40
2023-07-15T09:39:00,pst,7.38
2023-07-15T09:40:00,pst,7.37
2023-07-15T09:41:00,pst,7.42
2023-07-15T09:42:00,pst,6.73
2023-07-15T09:43:00,pst,6.82
2023-07-15T09:44:00,pst,6.75
2023-07-15T09:45:00,pst,6.74
2023-07-15T09:46:00,pst,6.75
2023-07-15T09:47:00,pst,6.70
2023-07-15T09:48:00,pst,6.64
2023-07-15T09:49:00,pst,6.63
2023-07-15T09:50:00,pst,6.66
2023-07-15T09:51:00,pst,6.63
2023-07-15T09:52:00,pst,6.65
2023-07-15T09:53:00,pst,6.64
2023-07-15T09:54:00,pst,8.25
2023-07-15T09:55:00,pst,8.21
2023-07-15T09:56:00,pst,8.23
2023-07-15T09:57:00,pst,8.44
2023-07-15T09:58:00,pst,8.53
2023-07-15T09:59:00,pst,8.29
2023-07-15T10:00:00,pst,8.38
2023-07-15T10:01:00,pst,16.89
2023-07-15T10:02:00,pst,16.90
2023-07-15T10:03:00,pst,16.73
2023-07-15T10:04:00,pst,8.34
2023-07-15T10:05:00,pst,8.22
2023-07-15T10:06:00,pst,8.22
2023-07-15T10:07:00,pst,8.21
2023-07-15T10:08:00,pst,8.59
2023-07-15T10:09:00,pst,8.29
2023-07-15T10:10:00,pst,8.36
2023-07-15T10:11:00,pst,8.19
2023-07-15T10:12:00,pst,8.38
2023-07-15T10:13:00,pst,8.23
2023-07-15T10:14:00,pst,8.13
2023-07-15T10:15:00,pst,8.17
2023-07-15T10:16:00,pst,8.34
2023-07-15T10:17:00,pst,8.25
2023-07-15T10:18:00,pst,7.98
2023-07-15T10:19:00,pst,8.05
2023-07-15T10:20:00,pst,8.03
2023-07-15T10:21:00,pst,8.13
2023-07-15T10:22:00,pst,8.28
2023-07-15T10:23:00,pst,8.31
2023-07-15T10:24:00,pst,8.29
2023-07-15T10:25:00,pst,8.30
2023-07-15T10:26:00,pst,8.29
2023-07-15T10:27:00,pst,7.94
2023-07-15T10:28:00,pst,7.93
2023-07-15T10:29:00,pst,7.91
2023-07-15T10:30:00,pst,7.89
2023-07-15T10:31:00,pst,7.95
2023-07-15T10:32:00,pst,7.86
2023-07-15T10:33:00,pst,8.07
2023-07-15T10:34:00,pst,8.10
2023-07-15T10:35:00,pst,8.14
2023-07-15T10:36:00,pst,8.15
2023-07-15T10:37:00,pst,8.13
2023-07-15T10:38:00,pst,8.19
2023-07-15T10:39:00,pst,8.26
2023-07-15T10:40:00,pst,8.36
2023-07-15T10:41:00,pst,8.35
2023-07-15T10:42:00,pst,8.34
2023-07-15T10:43:00,pst,8.37
2023-07-15T10:44:00,pst,8.45
2023-07-15T10:45:00,pst,8.40
2023-07-15T10:46:00,pst,8.39
2023-07-15T10:47:00,pst,8.72
2023-07-15T10:48:00,pst,8.55
2023-07-15T10:49:00,pst,8.55
2023-07-15T10:50:00,pst,8.54
2023-07-15T10:51:00,pst,8.55
2023-07-15T10:52:00,pst,8.56
2023-07-15T10:53:00,pst,8.53
2023-07-15T10:54:00,pst,8.51
2023-07-15T10:55:00,pst,8.51
2023-07-15T10:56:00,pst,8.51
2023-07-15T10:57:00,pst,8.50
2023-07-15T10:58:00,pst,8.49
2023-07-15T10:59:00,pst,8.66
2023-07-15T11:00:00,pst,8.64
2023-07-15T11:01:00,pst,8.72
2023-07-15T11:02:00,pst,8.63
2023-07-15T11:03:00,pst,8.64
2023-07-15T11:04:00,pst,8.58
2023-07-15T11:05:00,pst,8.51
2023-07-15T11:06:00,pst,8.50
2023-07-15T11:07:00,pst,8.94
2023-07-15T11:08:00,pst,8.36
2023-07-15T11:09:00,pst,8.33
2023-07-15T11:10:00,pst,8.34
2023-07-15T11:11:00,pst,8.30
2023-07-15T11:12:00,pst,8.31
2023-07-15T11:13:00,pst,8.30
2023-07-15T11:14:00,pst,9.08
2023-07-15T11:15:00,pst,9.38
2023-07-15T11:16:00,pst,9.40
2023-07-15T11:17:00,pst,13.75
2023-07-15T11:18:00,pst,13.66
2023-07-15T11:19:00,pst,13.78
2023-07-15T11:20:00,pst,13.77
2023-07-15T11:21:00,pst,13.77
2023-07-15T11:22:00,pst,13.24
2023-07-15T11:23:00,pst,13.22
2023-07-15T11:24:00,pst,13.23
2023-07-15T11:25:00,pst,13.26
2023-07-15T11:26:00,pst,11.38
2023-07-15T11:27:00,pst,11.36
2023-07-15T11:28:00,pst,11.27
2023-07-15T11:29:00,pst,11.26
2023-07-15T11:30:00,pst,11.27
2023-07-15T11:31:00,pst,10.87
2023-07-15T11:32:00,pst,10.88
2023-07-15T11:33:00,pst,10.88
2023-07-15T11:34:00,pst,10.75
2023-07-15T11:35:00,pst,10.68
2023-07-15T11:36:00,pst,10.43
2023-07-15T11:37:00,pst,10.46
2023-07-15T11:38:00,pst,11.03
2023-07-15T11:39:00,pst,10.52
2023-07-15T11:40:00,pst,10.52
2023-07-15T11:41:00,pst,10.62
2023-07-15T11:42:00,pst,21.49
2023-07-15T11:43:00,pst,10.58
2023-07-15T11:44:00,pst,10.73
2023-07-15T11:45:00,pst,9.00
2023-07-15T11:46:00,pst,6.96
2023-07-15T11:47:00,pst,10.92
2023-07-15T11:48:00,pst,10.76
2023-07-15T11:49:00,pst,10.89
2023-07-15T11:50:00,pst,10.92
2023-07-15T11:51:00,pst,7.00
2023-07-15T11:52:00,pst,7.16
2023-07-15T11:53:00,pst,11.08
2023-07-15T11:54:00,pst,11.16
2023-07-15T11:55:00,pst,11.49
2023-07-15T11:56:00,pst,7.02
2023-07-15T11:57:00,pst,7.07
2023-07-15T11:58:00,pst,11.11
2023-07-15T11:59:00,pst,11.72
2023-07-15T12:00:00,pst,11.05
2023-07-15T12:01:00,pst,7.03
2023-07-15T12:02:00,pst,7.95
2023-07-15T12:03:00,pst,10.75
2023-07-15T12:04:00,pst,11.03
2023-07-15T12:05:00,pst,7.96
2023-07-15T12:06:00,pst,6.97
2023-07-15T12:07:00,pst,7.11
2023-07-15T12:08:00,pst,11.30
2023-07-15T12:09:00,pst,11.46
2023-07-15T12:10:00,pst,7.85
2023-07-15T12:11:00,pst,7.84
2023-07-15T12:12:00,pst,7.83
2023-07-15T12:13:00,pst,11.11
2023-07-15T12:14:00,pst,10.79
2023-07-15T12:15:00,pst,6.90
2023-07-15T12:16:00,pst,6.92
2023-07-15T12:17:00,pst,11.16
2023-07-15T12:18:00,pst,10.93
2023-07-15T12:19:00,pst,10.92
2023-07-15T12:20:00,pst,10.97
2023-07-15T12:21:00,pst,10.89
2023-07-15T12:22:00,pst,10.89
2023-07-15T12:23:00,pst,10.82
2023-07-15T12:24:00,pst,10.64
2023-07-15T12:25:00,pst,10.67
2023-07-15T12:26:00,pst,10.68
2023-07-15T12:27:00,pst,11.08
2023-07-15T12:28:00,pst,11.69
2023-07-15T12:29:00,pst,11.84
2023-07-15T12:30:00,pst,11.83
2023-07-15T12:31:00,pst,11.81
2023-07-15T12:32:00,pst,11.75
2023-07-15T12:33:00,pst,11.93
2023-07-15T12:34:00,pst,11.09
2023-07-15T12:35:00,pst,11.08
2023-07-15T12:36:00,pst,11.00
2023-07-15T12:37:00,pst,11.12
2023-07-15T12:38:00,pst,11.06
2023-07-15T12:39:00,pst,10.99
2023-07-15T12:40:00,pst,10.95
2023-07-15T12:41:00,pst,10.82
2023-07-15T12:42:00,pst,11.02
2023-07-15T12:43:00,pst,10.95
2023-07-15T12:44:00,pst,10.96
2023-07-15T12:45:00,pst,10.97
2023-07-15T12:46:00,pst,10.55
2023-07-15T12:47:00,pst,10.41
2023-07-15T12:48:00,pst,10.36
2023-07-15T12:49:00,pst,10.46
2023-07-15T12:50:00,pst,10.43
2023-07-15T12:51:00,pst,10.38
2023-07-15T12:52:00,pst,10.34
2023-07-15T12:53:00,pst,10.67
2023-07-15T12:54:00,pst,10.56
2023-07-15T12:55:00,pst,10.15
2023-07-15T12:56:00,pst,10.17
2023-07-15T12:57:00,pst,10.32
2023-07-15T12:58:00,pst,10.32
2023-07-15T12:59:00,pst,10.33
2023-07-15T13:00:00,pst,10.29
2023-07-15T13:01:00,pst,10.25
2023-07-15T13:02:00,pst,6.42
2023-07-15T13:03:00,pst,6.43
2023-07-15T13:04:00,pst,6.40
2023-07-15T13:05:00,pst,10.28
2023-07-15T13:06:00,pst,10.25
2023-07-15T13:07:00,pst,10.35
2023-07-15T13:08:00,pst,10.31
2023-07-15T13:09:00,pst,6.55
2023-07-15T13:10:00,pst,6.64
2023-07-15T13:11:00,pst,6.61
2023-07-15T13:12:00,pst,10.61
2023-07-15T13:13:00,pst,10.52
2023-07-15T13:14:00,pst,6.71
2023-07-15T13:15:00,pst,6.73
2023-07-15T13:16:00,pst,6.73
2023-07-15T13:17:00,pst,6.43
2023-07-15T13:18:00,pst,6.59
2023-07-15T13:19:00,pst,6.65
2023-07-15T13:20:00,pst,6.46
2023-07-15T13:21:00,pst,6.39
2023-07-15T13:22:00,pst,6.41
2023-07-15T13:23:00,pst,15.28
2023-07-15T13:24:00,pst,9.16
2023-07-15T13:25:00,pst,15.04
2023-07-15T13:26:00,pst,14.79
2023-07-15T13:27:00,pst,6.44
2023-07-15T13:28:00,pst,6.47